User: anonymous   Login
Location: Unspecified
(0.0000°N, 0.0000°E)
Time: 20:54:33
(UTC+00:00)
Language:

NOSS 2-1 (C) - Orbit

View from above orbital plane
View from above orbital plane
View from above satellite
View from above satellite

Ground track
Ground track

The orbit data is extracted from the following two-line orbital elements,

1 20691U 90050C   18130.87117560 0.00000150  00000-0  32269-4 0    05
2 20691  63.3324  64.2524 0820433  35.2728 324.7272 13.41800423    04
Epoch (UTC): 10 May 2018 20:54:29
Eccentricity: 0.0820433
inclination: 63.3324°
perigee height: 489 km
apogee height: 1716 km
right ascension of ascending node: 64.2524°
argument of perigee: 35.2728°
revolutions per day: 13.41800423
mean anomaly at epoch: 324.7272°
orbit number at epoch: 0

The dashed part of the orbit path shows where the satellite is in the earth's shadow,  

DLR